• In Hungary
  • List of Countries
  • For 7 days
  • Water Temperature
  • Satellite Maps
  • Weather Map
  • News
  • Weather Widgets
  • user-avatar
    Login

    Hourly Weather San Juan de Limay

    Today, 14 December, Thursday

    Time Temperature Precipitation Wind Pressure Humidity
    00:00 +19°C° 0 mm 2 mps 724 mmHg 79%
    01:00 +19°C° 0 mm 2 mps 724 mmHg 80%
    02:00 +19°C° 0 mm 2 mps 723 mmHg 81%
    03:00 +18°C° 0 mm 2 mps 723 mmHg 82%
    04:00 +18°C° 0 mm 2 mps 723 mmHg 82%
    05:00 +18°C° 0 mm 2 mps 723 mmHg 82%
    06:00 +18°C° 0 mm 2 mps 723 mmHg 82%
    07:00 +20°C° 0 mm 2 mps 723 mmHg 72%
    08:00 +24°C° 0 mm 2 mps 724 mmHg 62%
    09:00 +27°C° 0 mm 2 mps 724 mmHg 52%
    10:00 +28°C° 0 mm 2 mps 724 mmHg 48%
    11:00 +30°C° 0 mm 2 mps 723 mmHg 43%
    12:00 +33°C° 0 mm 3 mps 723 mmHg 39%
    13:00 +33°C° 0 mm 3 mps 722 mmHg 40%
    14:00 +33°C° 0 mm 3 mps 722 mmHg 41%
    15:00 +33°C° 0 mm 3 mps 721 mmHg 42%
    16:00 +30°C° 0 mm 2 mps 722 mmHg 50%
    17:00 +28°C° 0 mm 2 mps 722 mmHg 58%
    18:00 +26°C° 0 mm 2 mps 722 mmHg 65%
    19:00 +25°C° 0 mm 2 mps 722 mmHg 69%
    20:00 +24°C° 0 mm 2 mps 723 mmHg 73%
    21:00 +23°C° 0 mm 2 mps 723 mmHg 76%
    22:00 +23°C° 0 mm 2 mps 723 mmHg 78%
    23:00 +21°C° 0 mm 2 mps 723 mmHg 80%

    Tomorrow, 15 December, Friday

    Time Temperature Precipitation Wind Pressure Humidity
    00:00 +21°C° 0 mm 2 mps 723 mmHg 82%
    01:00 +21°C° 0 mm 2 mps 723 mmHg 83%
    02:00 +21°C° 0 mm 2 mps 722 mmHg 83%
    03:00 +21°C° 0 mm 2 mps 722 mmHg 83%
    04:00 +21°C° 0 mm 2 mps 722 mmHg 84%
    05:00 +21°C° 0 mm 2 mps 722 mmHg 84%
    06:00 +20°C° 0 mm 2 mps 723 mmHg 85%
    07:00 +24°C° 0 mm 2 mps 723 mmHg 77%
    08:00 +26°C° 0 mm 2 mps 724 mmHg 68%
    09:00 +28°C° 0 mm 3 mps 724 mmHg 60%
    10:00 +29°C° 0 mm 3 mps 724 mmHg 56%
    11:00 +31°C° 0 mm 3 mps 724 mmHg 52%
    12:00 +33°C° 0 mm 4 mps 723 mmHg 48%
    13:00 +33°C° 0 mm 3 mps 723 mmHg 49%
    14:00 +33°C° 0 mm 3 mps 722 mmHg 51%
    15:00 +31°C° 0 mm 3 mps 721 mmHg 52%
    16:00 +30°C° 0 mm 3 mps 721 mmHg 59%
    17:00 +28°C° 0 mm 2 mps 721 mmHg 66%
    18:00 +26°C° 0 mm 1 mps 722 mmHg 74%
    19:00 +25°C° 0 mm 2 mps 722 mmHg 77%
    20:00 +24°C° 0 mm 2 mps 723 mmHg 81%
    21:00 +24°C° 0 mm 2 mps 723 mmHg 85%
    22:00 +23°C° 0 mm 2 mps 723 mmHg 86%
    23:00 +23°C° 0 mm 2 mps 723 mmHg 87%

    Day after tomorrow, 16 December, Saturday

    Time Temperature Precipitation Wind Pressure Humidity
    00:00 +23°C° 0 mm 2 mps 723 mmHg 88%
    01:00 +23°C° 0 mm 2 mps 723 mmHg 88%
    02:00 +23°C° 0 mm 2 mps 723 mmHg 89%
    03:00 +21°C° 0 mm 2 mps 722 mmHg 89%
    04:00 +21°C° 0 mm 2 mps 722 mmHg 89%
    05:00 +23°C° 0 mm 2 mps 723 mmHg 89%
    06:00 +23°C° 0 mm 2 mps 723 mmHg 89%
    07:00 +25°C° 0 mm 2 mps 723 mmHg 80%
    08:00 +27°C° 0 mm 3 mps 724 mmHg 71%
    09:00 +29°C° 0 mm 4 mps 725 mmHg 62%
    10:00 +30°C° 0 mm 4 mps 724 mmHg 59%
    11:00 +32°C° 0 mm 5 mps 724 mmHg 55%
    12:00 +33°C° 0 mm 5 mps 723 mmHg 52%
    13:00 +33°C° 0 mm 5 mps 723 mmHg 51%
    14:00 +33°C° 0 mm 5 mps 722 mmHg 50%
    15:00 +33°C° 0 mm 5 mps 721 mmHg 49%
    16:00 +30°C° 0 mm 4 mps 721 mmHg 57%
    17:00 +28°C° 0 mm 3 mps 722 mmHg 64%
    18:00 +26°C° 0 mm 2 mps 722 mmHg 72%
    19:00 +25°C° 0 mm 2 mps 722 mmHg 76%
    20:00 +25°C° 0 mm 2 mps 723 mmHg 80%
    21:00 +24°C° 0 mm 2 mps 723 mmHg 84%
    22:00 +23°C° 0 mm 2 mps 723 mmHg 85%
    23:00 +23°C° 0 mm 2 mps 723 mmHg 87%

    17 December, Sunday

    Time Temperature Precipitation Wind Pressure Humidity
    00:00 +21°C° 0 mm 2 mps 723 mmHg 89%
    01:00 +21°C° 0 mm 2 mps 723 mmHg 88%
    02:00 +23°C° 0 mm 2 mps 722 mmHg 87%
    03:00 +23°C° 0 mm 2 mps 722 mmHg 87%
    04:00 +21°C° 0 mm 2 mps 722 mmHg 88%
    05:00 +21°C° 0 mm 2 mps 723 mmHg 88%
    06:00 +21°C° 0 mm 2 mps 723 mmHg 89%
    07:00 +24°C° 0 mm 3 mps 723 mmHg 80%
    08:00 +26°C° 0 mm 4 mps 724 mmHg 71%
    09:00 +28°C° 0 mm 5 mps 725 mmHg 62%
    10:00 +30°C° 0 mm 5 mps 724 mmHg 57%
    11:00 +32°C° 0 mm 5 mps 723 mmHg 52%
    12:00 +33°C° 0 mm 5 mps 723 mmHg 48%
    13:00 +33°C° 0 mm 5 mps 722 mmHg 49%
    14:00 +33°C° 0 mm 5 mps 721 mmHg 51%
    15:00 +32°C° 0 mm 5 mps 721 mmHg 53%
    16:00 +30°C° 0 mm 5 mps 721 mmHg 60%
    17:00 +28°C° 0 mm 4 mps 721 mmHg 67%
    18:00 +26°C° 0 mm 3 mps 722 mmHg 74%
    19:00 +26°C° 0 mm 3 mps 722 mmHg 77%
    20:00 +25°C° 0 mm 3 mps 722 mmHg 81%
    21:00 +24°C° 0 mm 2 mps 723 mmHg 84%
    22:00 +24°C° 0 mm 3 mps 723 mmHg 84%
    23:00 +24°C° 0 mm 3 mps 723 mmHg 83%

    18 December, Monday

    Time Temperature Precipitation Wind Pressure Humidity
    00:00 +24°C° 0 mm 3 mps 722 mmHg 83%
    01:00 +22°C° 0 mm 3 mps 722 mmHg 84%
    02:00 +23°C° 0 mm 2 mps 722 mmHg 85%
    03:00 +23°C° 0 mm 2 mps 721 mmHg 86%
    04:00 +23°C° 0 mm 2 mps 722 mmHg 86%
    05:00 +21°C° 0 mm 2 mps 722 mmHg 87%
    06:00 +21°C° 0 mm 2 mps 722 mmHg 87%
    07:00 +25°C° 0 mm 3 mps 723 mmHg 78%
    08:00 +27°C° 0 mm 4 mps 724 mmHg 70%
    09:00 +29°C° 0 mm 5 mps 724 mmHg 61%
    10:00 +30°C° 0 mm 5 mps 724 mmHg 59%
    11:00 +32°C° 0 mm 6 mps 723 mmHg 56%
    12:00 +33°C° 0 mm 6 mps 723 mmHg 53%
    13:00 +32°C° 0 mm 6 mps 722 mmHg 54%
    14:00 +32°C° 0 mm 6 mps 722 mmHg 55%
    15:00 +32°C° 0 mm 5 mps 721 mmHg 57%
    16:00 +29°C° 0 mm 5 mps 721 mmHg 63%
    17:00 +28°C° 0 mm 4 mps 722 mmHg 69%
    18:00 +26°C° 0 mm 3 mps 722 mmHg 75%
    19:00 +25°C° 0 mm 2 mps 722 mmHg 78%
    20:00 +25°C° 0 mm 2 mps 723 mmHg 81%
    21:00 +24°C° 0 mm 2 mps 723 mmHg 84%
    22:00 +24°C° 0 mm 2 mps 723 mmHg 84%
    23:00 +23°C° 0 mm 2 mps 723 mmHg 85%

    19 December, Tuesday

    Time Temperature Precipitation Wind Pressure Humidity
    00:00 +23°C° 0 mm 2 mps 723 mmHg 86%
    01:00 +23°C° 0 mm 2 mps 723 mmHg 85%
    02:00 +23°C° 0 mm 2 mps 722 mmHg 85%
    03:00 +23°C° 0 mm 2 mps 722 mmHg 84%
    04:00 +23°C° 0 mm 2 mps 722 mmHg 84%
    05:00 +23°C° 0 mm 2 mps 723 mmHg 84%
    06:00 +23°C° 0 mm 2 mps 723 mmHg 84%
    07:00 +25°C° 0 mm 3 mps 723 mmHg 76%
    08:00 +27°C° 0 mm 4 mps 724 mmHg 68%
    09:00 +29°C° 0 mm 5 mps 725 mmHg 59%
    10:00 +30°C° 0 mm 5 mps 724 mmHg 56%
    11:00 +32°C° 0 mm 5 mps 724 mmHg 53%
    12:00 +33°C° 0 mm 5 mps 723 mmHg 49%
    13:00 +33°C° 0 mm 5 mps 722 mmHg 50%
    14:00 +33°C° 0 mm 5 mps 722 mmHg 50%
    15:00 +33°C° 0 mm 5 mps 721 mmHg 50%
    16:00 +30°C° 0 mm 4 mps 721 mmHg 57%
    17:00 +28°C° 0 mm 3 mps 722 mmHg 64%
    18:00 +27°C° 0 mm 2 mps 722 mmHg 71%
    19:00 +26°C° 0 mm 2 mps 723 mmHg 74%
    20:00 +26°C° 0 mm 2 mps 723 mmHg 77%
    21:00 +25°C° 0 mm 2 mps 724 mmHg 80%
    22:00 +24°C° 0 mm 2 mps 724 mmHg 81%
    23:00 +24°C° 0 mm 2 mps 723 mmHg 83%
    Show more